Home   Weather   Aspen   Past weeks

Flag for USA Past Weather in Aspen, Colorado, USA — Yesterday and Last 2 Weeks

Now
11 °F

Clear.


Feels Like: 3 °F
Forecast: 16 / 28 °F
Wind: 5 mph from North

Location: Aspen-Pitkin County Airport

Current Time: Jan 21, 2017 at 6:24:56 am

Latest Report: Jan 21, 2017 at 5:53 am


Visibility: 10 mi

Pressure: 29.37 "Hg (21.43 "Hg at 2411m altitude)

Humidity: 88%

Dew Point: 8 °F

Location of AspenLocation

Past Weather in Aspen — Graph

°F

Aspen Temperature Yesterday

Maximum temperature yesterday: 31 °F (at 11:53 am)
Minimum temperature yesterday: 14 °F (at 9:53 pm)
Average temperature yesterday: 25 °F

High & Low Weather Summary for the Past Weeks

 TemperatureHumidityPressure
High40 °F (Jan 13, 1:53 pm)100% (Jan 9, 8:00 pm)30.67 "Hg (Jan 9, 8:00 pm)
Low-9 °F (Jan 7, 12:53 am)38% (Jan 11, 3:53 pm)29.33 "Hg (Jan 21, 3:53 am)
Average24 °F85%29.98 "Hg
* Reported Jan 6 4:05 am — Jan 21 4:53 am, Aspen, Weather by CustomWeather, © 2017

Note: Actual official high and low records may vary slightly from our data, if they occured in-between our weather recording intervals... More about our weather records

Advertising

Aspen Weather History for the Previous 24 Hours

Scroll right to see more
 ConditionsComfort  
Time TempWeatherWind HumidityBarometerVisibility
4:53 am
Sat, Jan 21
11 °FPassing clouds.3 mph88%29.37 "Hg10 mi
3:53 am15 °FPassing clouds.No wind80%29.33 "Hg10 mi
2:53 am15 °FPassing clouds.5 mph83%29.34 "Hg10 mi
1:53 am15 °FClear.3 mph91%29.35 "Hg10 mi
12:53 am19 °FPassing clouds.6 mph77%29.36 "Hg10 mi
11:53 pm
Fri, Jan 20
17 °FMostly cloudy.3 mph83%29.41 "Hg10 mi
10:53 pm18 °FOvercast.5 mph84%29.43 "Hg10 mi
9:53 pm14 °FPassing clouds.5 mph92%29.46 "Hg10 mi
8:53 pm20 °FPartly cloudy.7 mph82%29.47 "Hg10 mi
8:28 pm20 °FPassing clouds.5 mph92%29.48 "Hg7 mi
7:53 pm21 °FOvercast.3 mph88%29.49 "Hg10 mi
6:53 pm17 °FMostly cloudy.5 mph88%29.50 "Hg10 mi
5:53 pm19 °FPassing clouds.No wind88%29.49 "Hg10 mi
4:53 pm23 °FBroken clouds.No wind85%29.47 "Hg10 mi
3:53 pm28 °FBroken clouds.6 mph78%29.44 "Hg10 mi
2:53 pm30 °FBroken clouds.5 mph75%29.42 "Hg10 mi
1:58 pm30 °FMostly cloudy.10 mph79%29.47 "Hg10 mi
1:53 pm30 °FBroken clouds.9 mph79%29.42 "Hg8 mi
12:53 pm29 °FBroken clouds.8 mph79%29.43 "Hg8 mi
11:53 am31 °FBroken clouds.8 mph76%29.44 "Hg10 mi
11:14 am29 °FBroken clouds.6 mph85%29.53 "Hg10 mi
10:53 am29 °FMore clouds than sun.7 mph85%29.48 "Hg9 mi
10:29 am28 °FLight snow. Ice fog.5 mph89%29.54 "Hg6 mi
10:14 am28 °FLight snow. Ice fog.3 mph89%29.54 "Hg4 mi
9:53 am27 °FLight snow. Ice fog.No wind92%29.49 "Hg1 mi
8:53 am26 °FLight snow. Ice fog.No wind92%29.48 "Hg6 mi
8:00 am25 °FLight snow. Ice fog.3 mph96%29.52 "Hg1 mi
7:53 am25 °FLight snow. Ice fog.No wind96%29.48 "Hg1 mi
6:53 am25 °FLight snow. Ice fog.3 mph96%29.47 "Hg2 mi
6:31 am25 °FLight snow. Ice fog.3 mph96%29.52 "Hg1 mi
6:05 am25 °FLight snow. Ice fog.3 mph96%29.51 "Hg2 mi
Weather by CustomWeather, © 2017

See weather overviewHow to use our weather pages